{"data":{"norad_id":68053,"intl_designator":"2026-041P","name":"STARLINK-36919","alt_names":[],"object_type":"PAYLOAD","status":"ACTIVE","operator":null,"country":"US","launch_date":"2026-03-02","launch_site_code":"AFETR","launch_vehicle":null,"mission":null,"orbit_class":"UNKNOWN","rcs_meters":null,"size_class":null,"mass_kg":null,"dimensions":null,"purposes":["comms"],"wikipedia_slug":null,"has_3d_model":false,"image_url":null,"decayed_at":null,"tle_current":{"epoch":"2026-09-19T14:41:31.035264Z","epoch_age_seconds":136329,"freshness":"FRESH","line1":"1 68053U 26041P   26262.61216476  .00016575  00000+0  50068-3 0  9991","line2":"2 68053  53.1603 225.9255 0000886 109.8908 250.2190 15.34394641 31125","mean_motion":15.34394641,"eccentricity":8.86e-5,"inclination_deg":53.1603,"raan_deg":225.9255,"arg_perigee_deg":109.8908,"mean_anomaly_deg":250.219,"bstar":0.00050068,"rev_number":3112,"period_min":93.84808585238,"perigee_km":462.11306847431,"apogee_km":463.32526818734,"semimajor_km":6840.8561683308,"source":"CELESTRAK","updated_at":"2026-09-20T09:00:43.749645Z"}}}